Theta_e
358 355 355 352 352 350 348 346 346 347 346 345 346 347 346 347 348 348 351 356 352 354 356 357 356 356 359 361 358 356 355 353 354 352 352 353 352 351 350 350 350 349 349
352 352 353 352 350 346 346 344 343 346 345 344 345 347 346 346 348 349 348 346 346 345 347 351 355 356 358 359 357 355 354 353 353 352 351 350 352 352 351 349 350 350 349
349 349 349 346 339 341 341 341 339 340 340 339 341 339 340 343 344 349 349 344 337 339 341 344 344 345 351 354 353 350 350 352 352 351 351 350 350 351 352 351 350 350 349
341 344 343 336 335 338 339 332 333 333 330 328 327 327 328 335 344 342 335 331 333 333 332 335 335 338 343 346 347 347 345 343 341 341 342 344 347 349 349 351 351 350 350
334 338 332 331 331 334 330 326 327 328 325 323 319 323 331 337 342 339 334 331 327 327 325 327 328 333 337 340 341 339 336 335 335 335 335 337 339 341 343 347 349 350 349
327 330 328 328 327 322 321 322 325 325 325 320 317 323 337 341 339 338 332 324 324 324 323 325 321 323 331 332 330 331 331 331 330 329 328 329 332 334 337 340 341 346 347
325 326 323 325 323 319 321 321 320 323 318 318 318 325 334 335 333 331 321 319 318 320 319 321 320 322 324 327 325 324 324 325 326 325 323 323 325 328 330 332 335 337 338
323 321 324 320 321 318 318 318 319 318 317 318 315 318 325 328 325 322 317 317 316 317 317 318 320 319 320 321 319 321 320 321 322 322 321 320 322 323 325 326 328 331 333
320 321 320 319 319 316 313 314 314 316 312 317 317 315 311 311 314 321 318 314 316 315 314 318 317 317 316 317 317 316 318 318 319 319 318 318 319 320 322 322 324 325 327
317 317 318 316 317 314 315 315 315 316 316 311 316 316 314 312 306 310 313 314 316 314 314 314 315 316 317 316 318 317 316 316 316 316 316 317 317 319 319 320 321 322 324
318 316 318 318 317 313 315 314 314 313 312 312 310 311 312 313 311 307 304 305 309 313 314 314 314 315 316 315 313 314 315 315 315 313 314 315 315 316 317 318 319 320 322
314 316 316 316 316 316 314 313 315 313 313 311 310 310 307 306 305 304 302 304 303 306 312 314 313 313 313 311 312 317 318 318 315 314 313 313 314 315 315 315 317 318 320
311 315 317 316 313 314 313 314 313 313 310 309 309 308 309 307 308 306 303 301 300 305 310 312 311 311 310 310 310 315 315 317 317 315 314 313 314 314 314 314 314 315 316
310 315 314 314 313 313 313 314 310 310 312 309 309 309 308 307 307 307 304 301 298 301 304 307 309 308 309 308 309 315 309 315 317 313 313 315 316 314 313 313 313 313 313
311 313 313 312 311 311 311 311 309 309 310 311 309 308 307 306 307 307 306 305 300 295 296 302 302 309 308 307 309 307 308 313 315 313 315 315 316 315 314 313 312 311 312
311 311 311 311 311 310 311 312 309 309 309 308 308 308 307 306 306 307 305 305 303 300 296 301 301 303 306 305 308 305 307 314 312 314 315 314 313 314 313 312 313 313 311
313 311 310 310 310 310 310 310 308 307 306 306 307 306 305 306 304 304 304 303 301 301 296 298 301 302 302 303 304 306 306 305 304 312 313 314 313 312 312 312 311 312 311
312 310 308 308 307 308 309 307 305 306 305 304 304 305 304 303 304 305 302 302 301 302 300 296 298 300 300 303 302 304 302 304 304 307 309 310 309 309 309 309 309 309 309
306 306 305 306 306 307 306 307 307 306 305 304 303 304 304 304 303 302 301 300 299 300 299 297 296 299 300 301 300 301 300 300 302 307 307 307 307 307 308 308 308 307 307
306 305 305 304 305 305 305 306 306 306 305 305 304 305 305 304 303 302 300 299 299 297 297 295 295 295 297 298 299 296 297 298 298 300 302 304 306 306 306 306 308 308 306
305 305 305 305 306 305 303 305 303 303 305 306 306 306 306 305 306 303 299 298 299 297 294 293 293 294 294 295 294 296 294 295 295 297 296 297 297 297 299 302 305 308 307
304 304 304 305 304 304 303 302 303 302 304 304 305 306 307 309 308 307 305 304 301 296 294 294 293 293 294 295 296 294 292 290 289 296 294 293 296 295 296 298 301 302 303
305 304 305 305 304 305 302 301 302 302 303 304 305 305 306 306 306 306 305 304 304 303 302 297 294 294 294 296 294 292 291 292 291 293 294 291 295 293 296 298 301 301 301
306 306 305 306 307 308 304 301 302 304 305 305 305 306 306 307 307 306 303 301 301 300 300 298 296 296 296 295 294 293 294 293 294 295 296 290 294 293 295 296 299 299 299
308 307 308 308 308 309 306 301 302 304 304 305 307 308 307 307 299 296 298 297 297 297 300 301 300 298 297 297 297 295 292 291 290 291 294 292 291 291 293 294 295 298 297
309 309 308 309 309 309 306 301 301 304 304 305 307 306 304 302 295 294 296 295 293 294 295 295 295 296 297 298 301 296 294 291 290 289 293 290 290 291 288 293 294 294 294
Wind_Speed
3 3 4 4 4 5 5 5 5 5 5 7 6 6 5 6 6 4 6 24 22 22 19 14 8 4 5 6 8 10 9 9 9 10 10 10 10 9 9 8 8 10 11
5 5 3 3 5 5 5 5 5 4 4 5 6 4 5 5 5 4 9 10 21 21 21 21 20 18 8 2 7 6 5 6 7 8 8 8 9 10 10 9 9 9 10
4 4 3 4 6 5 5 5 5 5 4 6 6 6 5 6 4 10 8 7 10 21 20 20 22 23 22 19 18 18 19 17 13 10 4 7 8 9 10 10 10 10 10
5 5 3 6 5 5 3 4 4 4 4 4 5 5 5 5 9 10 8 7 6 7 13 18 19 20 19 18 20 21 21 22 21 20 18 18 16 7 9 10 11 11 11
5 5 6 6 5 4 5 4 4 4 4 4 5 5 2 1 6 6 7 5 5 6 5 12 16 17 18 20 23 23 21 20 19 19 18 18 17 16 16 11 10 12 12
5 6 6 4 5 7 7 5 5 2 1 4 6 5 4 4 3 4 6 7 4 6 6 5 5 8 15 17 18 20 20 19 19 18 18 17 17 16 15 15 16 11 13
6 6 5 4 5 6 5 6 6 3 5 4 4 4 5 3 5 5 6 5 6 5 6 6 4 3 7 17 17 18 18 17 17 17 17 17 16 15 16 16 16 16 15
5 5 4 5 5 5 6 6 8 4 2 4 3 3 5 4 4 5 5 4 3 5 4 7 5 6 4 7 11 17 17 17 16 15 15 16 16 16 15 15 16 16 16
6 5 6 5 4 5 5 5 6 6 4 3 6 3 3 3 3 2 5 2 5 5 4 5 4 6 5 5 7 10 15 16 15 14 15 14 15 16 17 17 17 17 17
6 5 5 5 4 5 5 4 5 5 4 4 2 4 3 4 4 4 2 2 4 4 5 4 3 5 5 4 9 12 14 14 13 13 14 14 15 17 17 17 17 18 18
4 6 5 5 5 5 5 5 6 8 6 4 4 3 2 3 5 3 2 5 5 3 3 4 1 4 5 5 3 8 11 13 10 10 11 15 16 15 15 16 17 17 18
4 5 6 5 5 5 5 5 5 7 5 6 6 5 5 4 5 4 3 4 4 5 2 4 4 4 5 4 8 14 13 12 1 4 8 16 16 15 14 14 15 17 19
6 4 4 4 4 5 5 4 4 4 5 5 7 6 5 5 4 4 3 4 3 4 3 5 4 4 4 4 6 12 15 11 9 5 12 15 16 15 15 15 16 18 19
7 5 5 4 4 4 4 3 4 4 4 5 6 6 3 4 4 3 3 3 3 3 4 3 4 4 4 3 9 15 7 12 11 17 17 16 14 13 14 16 18 19 20
7 5 5 4 4 3 4 6 4 4 3 4 5 6 5 4 4 4 4 3 2 4 6 5 5 5 5 5 9 9 4 10 15 18 14 12 5 9 12 14 17 21 21
8 5 5 4 4 4 4 3 4 4 5 4 4 5 5 4 5 4 4 4 4 4 4 4 5 7 5 8 10 9 7 13 15 17 16 7 9 8 9 16 16 17 21
4 5 4 4 4 4 4 4 4 5 5 4 4 4 4 4 4 4 4 4 4 4 6 9 8 9 8 8 8 6 9 6 8 14 17 15 11 12 13 12 17 17 20
3 4 4 4 5 5 4 4 6 4 4 3 2 3 3 3 4 5 4 5 4 4 4 9 10 10 11 8 9 9 8 7 7 16 22 20 18 19 21 21 18 22 22
5 7 7 6 5 3 4 4 3 2 2 1 2 2 3 3 2 3 4 4 5 5 5 7 8 8 8 8 10 7 9 10 7 18 18 21 23 27 25 22 22 26 21
1 4 3 1 1 2 3 3 4 2 2 4 2 3 5 5 1 1 3 3 3 5 7 7 9 9 8 8 8 12 10 10 11 12 19 19 20 24 25 25 26 24 25
5 7 7 4 4 4 5 3 5 6 5 4 5 5 6 1 11 4 4 4 3 5 7 8 9 10 9 10 12 7 10 12 13 10 14 14 12 13 13 19 23 23 20
2 4 5 4 3 5 6 8 6 4 5 6 5 7 6 8 10 11 15 13 8 6 7 8 10 11 12 11 8 8 11 12 15 7 10 16 10 16 13 12 25 29 29
7 6 6 6 8 8 11 10 11 5 5 6 7 8 9 8 5 5 6 13 12 10 11 10 13 12 13 10 9 13 13 12 14 12 14 17 11 16 13 15 27 30 31
8 8 9 10 10 6 12 15 13 7 7 7 10 11 11 9 9 6 5 6 5 7 7 8 11 13 8 10 11 12 12 14 13 10 11 17 13 17 16 15 30 32 34
8 8 8 8 9 8 11 16 11 7 8 11 9 9 9 8 7 6 3 5 7 9 11 15 13 14 21 23 20 7 9 12 13 13 11 14 16 19 18 18 17 31 35
7 7 9 10 11 9 9 11 11 6 8 6 6 8 2 5 9 5 2 5 9 10 9 10 12 14 17 17 13 7 7 10 13 15 12 12 16 15 17 14 14 13 15
Wind_Direction
20 13 42 350 360 24 358 2 345 18 329 306 322 13 346 348 323 355 59 70 62 54 51 46 26 343 283 256 228 215 212 215 207 213 207 204 214 218 233 250 249 240 233
16 343 343 25 33 16 4 342 3 331 325 312 315 351 351 295 298 16 97 81 72 61 54 51 45 42 45 344 231 231 241 231 233 227 225 218 212 216 227 235 250 251 248
24 328 42 36 44 341 346 359 351 338 332 330 342 356 335 308 3 56 77 99 83 71 57 57 54 50 45 60 67 65 58 55 48 29 319 256 235 223 224 233 239 246 247
29 302 32 54 13 296 11 17 330 328 351 353 342 322 304 3 68 73 57 46 41 62 63 63 59 53 54 59 63 66 61 57 53 47 41 36 25 309 238 232 238 243 241
28 335 49 50 331 353 43 360 350 25 315 357 307 264 169 10 85 81 104 103 86 92 98 82 71 66 62 60 58 52 52 47 44 41 36 30 27 18 16 351 250 240 242
26 340 92 48 8 43 26 354 309 347 353 4 306 312 58 70 108 106 91 65 5 81 69 73 114 89 80 71 63 54 45 38 34 32 29 23 16 9 3 3 7 312 251
33 1 61 44 65 58 29 347 326 258 56 351 258 230 101 109 57 80 79 67 342 74 72 54 49 70 100 85 69 57 45 37 29 25 22 16 10 5 358 354 349 349 345
38 65 47 60 12 99 56 13 342 329 84 28 334 270 154 125 62 64 87 85 18 51 54 80 65 45 30 110 90 60 45 33 22 22 18 10 2 357 354 348 341 338 337
69 61 57 44 48 46 63 31 348 13 340 60 29 334 336 97 130 179 113 126 105 96 37 111 62 80 21 82 74 54 40 27 19 18 12 6 359 353 347 342 337 334 333
94 79 83 79 51 60 38 35 5 333 350 23 25 81 28 78 65 132 161 59 85 99 105 62 45 110 73 63 99 59 34 14 5 2 2 359 352 343 339 335 333 329 325
85 90 80 64 54 82 66 50 19 9 15 6 359 351 12 96 46 52 337 352 13 15 101 112 106 78 87 69 45 52 28 350 346 344 355 344 340 340 338 336 332 327 320
100 79 75 68 47 75 55 41 61 31 25 20 345 30 36 32 24 31 356 2 354 307 135 90 70 64 65 36 5 8 360 334 321 4 342 332 328 329 330 332 331 328 322
105 67 91 89 83 79 55 54 74 80 44 30 13 9 40 41 31 31 9 1 333 311 16 71 57 47 41 21 359 349 343 342 335 357 316 315 308 308 315 320 323 322 319
96 93 90 83 88 77 71 82 37 61 49 59 25 7 342 33 28 26 17 4 337 329 6 344 38 21 36 4 329 330 307 327 340 326 310 292 287 289 293 306 312 315 313
111 109 106 104 92 71 125 86 45 51 34 64 53 10 15 12 27 4 14 15 359 330 318 2 348 13 349 334 328 307 307 311 315 304 299 297 307 287 288 290 295 301 303
88 109 126 124 105 88 36 68 122 65 47 14 70 59 20 4 5 9 10 354 359 351 305 350 328 338 340 320 312 316 291 314 307 293 288 272 293 291 280 288 289 291 297
117 128 129 108 97 84 89 80 93 103 68 48 34 28 50 59 345 11 8 20 353 352 329 315 324 326 318 310 298 305 305 311 310 317 307 319 306 277 286 278 282 281 285
100 110 92 92 94 74 53 44 30 51 82 101 44 2 36 30 341 21 356 350 333 334 339 319 320 320 309 312 305 306 308 325 336 322 311 318 322 313 307 296 289 285 279
61 50 38 33 36 55 58 11 17 24 6 63 78 339 350 346 10 27 356 355 333 335 336 296 305 303 305 307 314 310 323 305 306 314 317 313 312 297 293 303 297 288 281
93 100 96 79 119 291 289 256 209 242 11 351 295 246 261 249 108 4 293 317 319 341 305 313 306 303 300 310 326 313 318 320 321 326 314 302 312 310 301 299 299 298 291
209 214 196 229 227 239 237 145 53 349 334 295 286 259 258 17 270 220 245 264 309 282 301 297 301 302 308 320 305 323 316 320 312 318 310 303 312 300 297 293 288 288 291
297 310 315 268 226 256 225 153 169 216 285 302 294 289 290 265 253 207 224 238 241 253 288 296 297 294 296 295 316 314 308 309 305 288 294 294 295 289 292 288 286 284 283
209 218 232 230 226 224 201 198 202 208 237 257 267 272 273 274 211 239 202 204 226 262 275 290 297 292 302 302 320 307 299 296 296 298 292 289 295 285 288 280 282 284 281
211 211 224 236 240 234 200 208 211 214 239 250 257 262 265 263 260 255 252 273 286 286 279 288 282 289 301 301 284 281 289 289 288 289 287 290 301 289 288 285 285 285 286
209 224 231 244 247 237 237 209 204 214 236 248 250 268 260 256 91 81 23 313 294 286 286 280 278 298 294 287 276 274 285 302 296 297 294 291 297 293 291 287 285 284 283
222 232 228 230 241 247 248 205 196 224 251 269 293 292 1 115 132 147 244 262 279 285 287 286 290 285 280 271 238 238 291 292 291 296 298 296 296 295 288 282 276 280 281